Latest Weather Observations for Frankston

IDV60801

Issued at 11:35 pm EST Sunday 20 April 2014 (issued every 30 minutes, with the page automatically refreshed every 10 minutes)

About weather observations | Map of weather stations | Latest weather observations for VIC | Other Formats
Station Details ID: 086371 Name: FRANKSTON AWS Lat: -38.15 Lon: 145.12 Height: 6.0 m
Data from the previous 72 hours. | See also: Recent months at Frankston
Date/Time
EST
Temp
°C
App
Temp
°C
Dew
Point
Rel
Hum
%
Delta-T
°C
Wind Press
QNH
hPa
Press
MSL
hPa
Rain
since 9 am
mm
Dir
 
Spd
km/h
Gust
km/h
Spd
kts
Gust
kts
20/11:30pm 13.9 11.2 5.8 58 3.8 NE 9 15 5 8 - - -
20/11:00pm 14.6 11.6 5.9 56 4.2 NE 11 17 6 9 - - -
20/10:30pm 14.7 11.7 6.0 56 4.2 NE 11 17 6 9 - - -
20/10:00pm 14.4 11.8 6.3 58 3.9 NE 9 15 5 8 - - -
20/09:30pm 14.6 11.3 6.4 58 4.0 NNE 13 19 7 10 - - -
20/09:00pm 14.9 11.7 7.0 59 3.9 NNE 13 20 7 11 - - -
20/08:30pm 15.1 11.6 7.4 60 3.8 NNE 15 24 8 13 - - -
20/08:00pm 15.0 11.8 6.8 58 4.0 NNE 13 19 7 10 - - -
20/07:30pm 15.2 13.1 6.5 56 4.2 NE 7 13 4 7 - - -
20/07:00pm 15.8 13.1 7.3 57 4.2 NNE 11 17 6 9 - - -
20/06:30pm 16.7 13.1 6.8 52 4.9 N 15 20 8 11 - - -
20/06:00pm 17.8 14.2 6.7 48 5.5 N 15 17 8 9 - - -
20/05:30pm 17.6 14.2 7.6 52 5.0 N 15 19 8 10 - - -
20/05:00pm 17.5 14.5 7.5 52 5.0 N 13 15 7 8 - - -
20/04:30pm 17.4 14.4 7.7 53 4.9 N 13 17 7 9 - - -
20/04:00pm 17.1 13.6 7.2 52 4.9 N 15 19 8 10 - - -
20/03:30pm 17.1 14.0 7.2 52 4.9 N 13 17 7 9 - - -
20/03:00pm 17.0 13.7 6.2 49 5.3 NNW 13 15 7 8 - - -
20/02:30pm 16.9 13.2 6.1 49 5.3 NW 15 19 8 10 - - -
20/02:00pm 16.7 12.8 7.1 53 4.8 NW 17 20 9 11 - - -
20/01:30pm 16.5 12.3 5.5 48 5.3 WNW 17 20 9 11 - - -
20/01:00pm 16.2 12.0 5.8 50 5.0 WNW 17 20 9 11 - - -
20/12:30pm 16.1 11.3 5.4 49 5.1 NW 20 24 11 13 - - -
20/12:00pm 16.0 10.8 5.6 50 5.0 WNW 22 28 12 15 - - -
20/11:30am 15.8 10.1 5.1 49 5.1 WNW 24 30 13 16 - - -
20/11:00am 15.3 10.2 5.8 53 4.5 NW 22 30 12 16 - - -
20/10:30am 15.3 10.2 6.1 54 4.4 NW 22 28 12 15 - - -
20/10:00am 15.2 10.1 6.2 55 4.3 WNW 22 28 12 15 - - -
20/09:30am 15.1 9.7 6.4 56 4.2 NW 24 32 13 17 - - -
20/09:00am 14.4 10.4 9.2 71 2.7 NNW 20 26 11 14 - - -
20/08:30am 14.7 10.6 7.7 63 3.5 NNW 19 22 10 12 - - -
20/08:00am 14.5 10.4 8.0 65 3.2 NW 19 22 10 12 - - -
20/07:30am 14.7 10.8 8.6 67 3.1 NW 19 24 10 13 - - -
20/07:00am 14.5 10.5 8.2 66 3.2 NW 19 22 10 12 - - -
20/06:30am 14.4 10.7 8.1 66 3.1 NW 17 20 9 11 - - -
20/06:00am 14.4 11.3 8.8 69 2.8 WNW 15 19 8 10 - - -
20/05:30am 14.4 11.0 9.0 70 2.7 WNW 17 24 9 13 - - -
20/05:00am 14.6 10.7 8.5 67 3.1 NW 19 22 10 12 - - -
20/04:30am 14.6 11.5 9.0 69 2.9 NW 15 20 8 11 - - -
20/04:00am 14.6 10.5 8.8 68 2.9 WNW 20 26 11 14 - - -
20/03:30am 15.1 11.6 7.2 59 3.9 NW 15 20 8 11 - - -
20/03:00am 15.1 13.2 7.4 60 3.8 WSW 7 20 4 11 - - -
20/02:30am 13.2 11.7 8.5 73 2.3 ENE 6 11 3 6 - - -
20/02:00am 13.4 11.4 8.7 73 2.4 NNE 9 15 5 8 - - -
20/01:30am 13.8 11.1 8.8 72 2.5 NNE 13 19 7 10 - - -
20/01:00am 13.6 10.5 8.7 72 2.5 N 15 19 8 10 - - -
20/12:30am 13.7 11.5 9.2 74 2.3 NNE 11 17 6 9 - - -
20/12:00am 13.0 11.3 8.5 74 2.2 NE 7 11 4 6 - - -
 
Date/Time
EST
Temp
°C
App
Temp
°C
Dew
Point
Rel
Hum
%
Delta-T
°C
Wind Press
QNH
hPa
Press
MSL
hPa
Rain
since 9 am
mm
Dir
 
Spd
km/h
Gust
km/h
Spd
kts
Gust
kts
19/11:30pm 13.0 11.4 8.9 76 2.1 NE 7 11 4 6 - - -
19/11:00pm 13.0 12.4 8.9 76 2.1 ENE 2 6 1 3 - - -
19/10:30pm 12.9 12.2 8.6 75 2.1 E 2 4 1 2 - - -
19/10:00pm 12.8 11.3 8.3 74 2.2 E 6 7 3 4 - - -
19/09:30pm 12.8 11.7 8.3 74 2.2 E 4 6 2 3 - - -
19/09:00pm 13.1 11.5 8.2 72 2.4 ENE 6 7 3 4 - - -
19/08:30pm 12.9 11.7 8.0 72 2.4 E 4 4 2 2 - - -
19/08:00pm 12.9 11.3 8.0 72 2.4 SE 6 7 3 4 - - -
19/07:30pm 12.8 11.2 7.9 72 2.4 SE 6 7 3 4 - - -
19/07:00pm 12.9 11.2 7.6 70 2.6 SE 6 7 3 4 - - -
19/06:30pm 13.4 11.7 7.6 68 2.8 SSE 6 7 3 4 - - -
19/06:00pm 13.8 12.5 7.6 66 3.0 S 4 6 2 3 - - -
19/05:30pm 14.2 12.0 7.7 65 3.2 SSW 9 13 5 7 - - -
19/05:00pm 14.5 11.1 7.5 63 3.5 WSW 15 22 8 12 - - -
19/04:30pm 14.4 11.1 8.1 66 3.1 WSW 15 19 8 10 - - -
19/04:00pm 14.6 10.8 7.4 62 3.5 SW 17 22 9 12 - - -
19/03:30pm 14.3 11.8 8.3 67 3.0 SW 11 19 6 10 - - -
19/03:00pm 14.4 12.9 9.2 71 2.7 S 7 15 4 8 - - -
19/02:30pm 13.0 9.9 8.9 76 2.1 SSW 15 24 8 13 - - -
19/02:00pm 14.3 10.7 8.3 67 3.0 WSW 17 22 9 12 - - -
19/01:30pm 13.7 8.8 8.3 70 2.7 W 24 32 13 17 - - -
19/01:00pm 13.2 7.8 9.6 79 1.8 W 28 35 15 19 - - -
19/12:30pm 13.1 8.5 9.7 80 1.7 W 24 32 13 17 - - -
19/12:00pm 12.8 9.6 10.0 83 1.4 W 17 20 9 11 - - -
19/11:30am 11.7 5.9 9.6 87 1.1 W 30 32 16 17 - - -
19/11:00am 13.5 11.2 9.0 74 2.3 WNW 11 13 6 7 - - -
19/10:30am 13.3 11.3 8.8 74 2.3 SSW 9 20 5 11 - - -
19/10:00am 12.8 9.6 8.5 75 2.1 WSW 15 22 8 12 - - -
19/09:30am 13.2 11.6 8.7 74 2.3 S 7 13 4 7 - - -
19/09:00am 13.1 11.0 8.4 73 2.3 S 9 17 5 9 - - -
19/08:30am 13.0 10.4 7.7 70 2.6 S 11 20 6 11 - - -
19/08:00am 13.0 10.9 8.1 72 2.4 SW 9 13 5 7 - - -
19/07:30am 12.5 10.7 7.8 73 2.3 SSW 7 11 4 6 - - -
19/07:00am 12.5 10.6 7.6 72 2.4 SSW 7 13 4 7 - - -
19/06:30am 12.4 10.4 6.9 69 2.6 SSW 7 9 4 5 - - -
19/06:00am 12.5 10.6 6.5 67 2.9 S 6 7 3 4 - - -
19/05:30am 12.5 10.5 7.0 69 2.6 S 7 11 4 6 - - -
19/05:00am 12.4 10.4 6.2 66 2.9 S 6 9 3 5 - - -
19/04:30am 12.6 10.5 6.6 67 2.9 S 7 11 4 6 - - -
19/04:00am 12.9 10.5 6.9 67 2.9 SSW 9 17 5 9 - - -
19/03:30am 13.2 10.4 7.0 66 3.0 SSW 11 19 6 10 - - -
19/03:00am 12.9 11.1 5.3 60 3.5 S 4 9 2 5 - - -
19/02:30am 13.0 10.7 4.7 57 3.8 S 6 7 3 4 - - -
19/02:00am 13.0 10.0 3.9 54 4.1 S 9 13 5 7 - - -
19/01:30am 12.7 9.7 4.2 56 3.9 S 9 11 5 6 - - -
19/01:00am 12.8 10.3 4.5 57 3.8 S 7 13 4 7 - - -
19/12:30am 13.1 9.8 4.8 57 3.8 SSW 11 15 6 8 - - -
19/12:00am 13.2 10.6 5.9 61 3.4 SSW 9 15 5 8 - - -
 
Date/Time
EST
Temp
°C
App
Temp
°C
Dew
Point
Rel
Hum
%
Delta-T
°C
Wind Press
QNH
hPa
Press
MSL
hPa
Rain
since 9 am
mm
Dir
 
Spd
km/h
Gust
km/h
Spd
kts
Gust
kts
18/11:30pm 13.6 10.6 6.0 60 3.6 SSW 11 17 6 9 - - -
18/11:00pm 14.5 10.5 6.6 59 3.8 SW 17 24 9 13 - - -
18/10:30pm 13.8 10.6 6.7 62 3.4 SSW 13 20 7 11 - - -
18/10:00pm 13.3 11.2 8.2 71 2.5 SSW 9 15 5 8 - - -
18/09:30pm 13.6 9.0 8.0 69 2.8 SW 22 35 12 19 - - -
18/09:00pm 14.0 11.2 6.8 62 3.5 SSW 11 17 6 9 - - -
18/08:30pm 14.3 11.2 7.1 62 3.5 SSW 13 22 7 12 - - -
18/08:00pm 14.0 12.2 8.0 67 3.0 S 7 15 4 8 - - -
18/07:30pm 14.6 11.8 8.5 67 3.1 SSW 13 22 7 12 - - -
18/07:07pm 14.9 9.1 9.3 69 2.9 WSW 30 54 16 29 - - -
18/07:00pm 15.4 10.3 9.3 67 3.1 W 26 30 14 16 - - -
18/06:30pm 14.5 10.2 7.8 64 3.3 SW 20 33 11 18 - - -
18/06:00pm 15.7 8.9 6.7 55 4.4 WSW 32 39 17 21 - - -
18/05:30pm 14.5 8.7 9.3 71 2.7 SW 30 50 16 27 - - -
18/05:29pm 14.5 9.0 9.3 71 2.7 SW 28 50 15 27 - - -
18/05:00pm 15.7 9.2 6.4 54 4.5 WSW 30 39 16 21 - - -
18/04:30pm 16.0 8.5 6.4 53 4.7 WSW 35 44 19 24 - - -
18/04:00pm 16.1 9.4 8.3 60 4.0 WSW 33 43 18 23 - - -
18/03:30pm 16.1 8.8 7.3 56 4.4 WSW 35 44 19 24 - - -
18/03:00pm 14.9 10.8 8.8 67 3.1 WSW 20 28 11 15 - - -
18/02:51pm 14.9 7.9 8.6 66 3.2 SW 35 54 19 29 - - -
18/02:30pm 15.8 8.6 9.2 65 3.4 WSW 37 48 20 26 - - -
18/02:00pm 16.4 9.6 7.1 54 4.6 SW 32 43 17 23 - - -
18/01:30pm 16.4 10.6 8.1 58 4.2 SW 28 44 15 24 - - -
18/01:00pm 14.9 11.7 11.1 78 2.0 SW 19 33 10 18 - - -
18/12:30pm 13.8 10.7 11.5 86 1.2 SW 19 28 10 15 - - -
18/12:09pm 14.8 8.1 11.0 78 2.0 WSW 37 56 20 30 - - -
18/12:00pm 15.3 11.3 11.9 80 1.8 WSW 24 43 13 23 - - -
18/11:30am 14.7 9.9 11.5 81 1.7 SW 28 39 15 21 - - -
18/11:20am 14.5 8.6 12.4 87 1.1 SW 35 54 19 29 - - -
18/11:00am 14.9 9.1 13.8 93 0.6 WSW 37 46 20 25 - - -
18/10:45am 14.5 7.3 13.0 91 0.8 WSW 43 48 23 26 - - -
18/10:30am 17.5 11.7 12.6 73 2.7 WNW 35 46 19 25 - - -
18/10:00am 17.1 12.3 12.8 76 2.4 WNW 30 35 16 19 - - -
18/09:30am 16.4 11.3 12.0 75 2.4 WNW 30 43 16 23 - - -
18/09:00am 17.7 14.4 11.5 67 3.4 NNW 20 24 11 13 - - -
18/08:30am 15.2 14.1 9.8 70 2.8 E 6 9 3 5 - - -
18/08:00am 14.6 13.4 9.6 72 2.6 E 6 9 3 5 - - -
18/07:30am 14.6 13.6 10.2 75 2.3 E 6 9 3 5 - - -
18/07:00am 13.8 12.5 10.0 78 2.0 E 7 9 4 5 - - -
18/06:30am 13.9 13.1 10.9 82 1.6 ESE 6 9 3 5 - - -
18/06:00am 16.3 13.9 11.5 73 2.6 N 15 17 8 9 - - -
18/05:30am 16.4 13.9 12.2 76 2.3 NNW 17 22 9 12 - - -
18/05:00am 16.3 14.7 13.8 85 1.4 NNW 15 19 8 10 - - -
18/04:30am 16.4 15.6 14.1 86 1.3 NW 11 15 6 8 - - -
18/04:00am 16.0 16.0 13.7 86 1.3 WNW 6 7 3 4 - - -
18/03:30am 16.1 15.2 13.8 86 1.3 W 11 17 6 9 - - -
18/03:00am 16.0 13.6 13.8 87 1.2 W 19 24 10 13 - - -
18/02:30am 16.4 13.9 14.2 87 1.3 WNW 20 22 11 12 - - -
18/02:00am 16.5 14.3 14.5 88 1.1 NW 19 24 10 13 - - -
18/01:30am 17.0 15.6 14.5 85 1.4 NNW 15 17 8 9 - - -
18/01:00am 17.2 15.5 13.7 80 2.0 NNW 15 19 8 10 - - -
18/12:30am 17.5 15.6 13.0 75 2.5 N 15 20 8 11 - - -
18/12:00am 17.8 16.7 13.1 74 2.6 NNW 11 15 6 8 - - -

Other Formats:

Comma delimited format used in spreadsheet applications
http://www.bom.gov.au/fwo/IDV60801/IDV60801.94871.axf

JavaScript Object Notation format (JSON) in row-major order
http://www.bom.gov.au/fwo/IDV60801/IDV60801.94871.json